{"data":{"norad_id":61063,"intl_designator":"2024-164P","name":"STARLINK-32350","alt_names":[],"object_type":"PAYLOAD","status":"ACTIVE","operator":null,"country":"US","launch_date":"2024-09-13","launch_site_code":"AFWTR","launch_vehicle":null,"mission":null,"orbit_class":"UNKNOWN","rcs_meters":null,"size_class":null,"mass_kg":null,"dimensions":null,"purposes":["comms"],"wikipedia_slug":null,"has_3d_model":false,"image_url":null,"decayed_at":null,"tle_current":{"epoch":"2026-05-25T03:12:46.698048Z","epoch_age_seconds":73958,"freshness":"FRESH","line1":"1 61063U 24164P   26145.13387382  .00001912  00000+0  73381-4 0  9994","line2":"2 61063  53.1614  95.8936 0001141  83.8631 276.2500 15.31696929 95180","mean_motion":15.31696929,"eccentricity":0.0001141,"inclination_deg":53.1614,"raan_deg":95.8936,"arg_perigee_deg":83.8631,"mean_anomaly_deg":276.25,"bstar":7.3381e-5,"rev_number":9518,"period_min":94.013376454318,"perigee_km":469.96769182246,"apogee_km":471.53060764183,"semimajor_km":6848.8861497321,"source":"CELESTRAK","updated_at":"2026-05-25T13:38:19.356175Z"}}}